Lexington Weather

Lexington, Massachusetts, USA

79°F
8/3/2020 8:45am 
  • Lexington Conditions: Few Clouds
  • Temperature: 79.0°F / 26.1°CWarmer 1.8°F than last hour.
  • Dew Point: 71.6°FDecreased 1.8°Fsince last hour.
  • Relative Humidity: 78%Decreased 10.0% since last hour.
  • Wind: Wind from S S 2 mph, 10-min avg: 4 mph, gust: 12 mph
  • Barometer: 29.86 in Steady
  • Visibility: 10 miles
  • Rain Today: 0.00 in
  •   

Regional Weather Roundup
for Boston / Norton, MA

        
000
ASUS41 KBOX 020104
RWRBOX

REGIONAL WEATHER ROUNDUP
NATIONAL WEATHER SERVICE BOSTON/NORTON MA
900 PM EDT SAT AUG 01 2020

NOTE:  "FAIR" INDICATES FEW OR NO CLOUDS BELOW 12,000 FEET WITH NO 
SIGNIFICANT WEATHER AND/OR OBSTRUCTIONS TO VISIBILITY.

MAZALL-020200-
EASTERN MASSACHUSETTS
  
CITY           SKY/WX    TMP DP  RH WIND       PRES   REMARKS
BOSTON         PTCLDY    73  63  70 SE7       29.97R                  
BEVERLY        CLEAR     73  66  78 SE6       29.96R                  
LAWRENCE       CLEAR     75  62  64 SE5       29.98R                  
BEDFORD        CLEAR     78  61  55 SE6       29.95R                  
BLUE HILL      NOT AVBL                                               
NORWOOD        CLEAR     76  65  68 SE5       29.97R                  
MARSHFIELD     CLEAR     75  68  78 CALM      29.97R                  
PLYMOUTH       CLEAR     75  64  68 S5        29.99R                  
TAUNTON        CLEAR     76  65  68 SE6       29.98R                  
NEW BEDFORD    CLEAR     75  69  81 S6        29.98R                  
$$

MAZALL-020200-
CAPE COD AND THE ISLANDS
  
CITY           SKY/WX    TMP DP  RH WIND       PRES   REMARKS
FALMOUTH       CLEAR     73  66  78 S8        29.99R                  
HYANNIS        CLEAR     76  64  66 S6        29.98R                  
CHATHAM        CLEAR     73  66  78 SW5       30.00R                  
PROVINCETOWN   CLEAR     75  69  81 S7        29.99R                  
NANTUCKET      CLEAR     69  65  86 S7        30.00R                  
MARTHAS VNYRD  CLEAR     69  67  93 S6        30.00R                  
$$
 
MAZALL-020200-
CENTRAL AND WESTERN MASSACHUSETTS
  
CITY           SKY/WX    TMP DP  RH WIND       PRES   REMARKS
WORCESTER      PTCLDY    78  61  55 SE7       30.00R                  
FITCHBURG      CLEAR     79  62  56 CALM      29.97R                  
ORANGE         PTCLDY    74  66  76 CALM      29.97R                  
SPRINGFIELD    MOCLDY    78  64  63 S3        29.94R                  
WESTFIELD      CLOUDY    81  63  54 S6        29.95R                  
NORTH ADAMS    PTCLDY    70  62  76 E3        29.97R                  
PITTSFIELD     PTCLDY    73  62  68 CALM      29.98R                  
$$
 
RIZALL-020200-
RHODE ISLAND
  
CITY           SKY/WX    TMP DP  RH WIND       PRES   REMARKS
PROVIDENCE     PTCLDY    77  71  82 S14       29.98R                  
NEWPORT        PTCLDY    76  71  85 SE7       29.99R                  
BLOCK ISLAND   PTCLDY    74  71  91 SW10      29.99R                  
SMITHFIELD     PTCLDY    75  71  87 S6        29.99R                  
WESTERLY       PTCLDY    76  69  79 MISG      29.98R                  
$$
 
CTZALL-020200-
CONNECTICUT
  
CITY           SKY/WX    TMP DP  RH WIND       PRES   REMARKS
BRADLEY INTL   MOCLDY    82  59  45 S9        29.94R                  
HARTFORD       MOCLDY    82  62  50 S5        29.95R                  
BRIDGEPORT     PTCLDY    80  69  69 S9        29.97R                  
DANBURY        PTCLDY    78  63  59 S8        29.99R                  
GROTON         PTCLDY    74  70  87 SW8       29.97R                  
NEW HAVEN      PTCLDY    80  71  74 S7        29.97R                  
CHESTER        FAIR      77  66  69 S7        29.99R                  
MERIDEN        PTCLDY    79  63  57 S3        29.96R                  
WILLIMANTIC    CLOUDY    80  60  50 CALM      29.97R                  
OXFORD         PTCLDY    76  65  68 S5        30.00R                  
$$

MEZ002-015-021-024-NHZ003-005-008-011-012-014-VTZ005-008-020200-
NORTHERN NEW ENGLAND
  
CITY           SKY/WX    TMP DP  RH WIND       PRES   REMARKS
PORTLAND ME    PTCLDY    74  63  68 S6        29.96R                  
BANGOR ME      PTCLDY    75  62  64 S5        29.94R                  
CONCORD NH     CLEAR     76  64  66 SE5       29.96R                  
MANCHESTER NH  PTCLDY    80  64  58 SE7       29.95R                  
NASHUA NH      PTCLDY    79  63  57 SE6       29.97R                  
PORTSMOUTH NH  MOCLDY    73  63  71 S6        29.95R                  
JAFFREY NH     CLEAR     70  62  76 CALM      30.00R                  
KEENE NH       CLEAR     72  67  84 CALM      29.97R                  
BURLINGTON VT  PTCLDY    79  62  56 N3        29.94R                  
MT. WASHINGTON PTCLDY    55  48  76 CALM        N/A                   
$$

NYZ052-076-020200-
EASTERN NEW YORK
  
CITY           SKY/WX    TMP DP  RH WIND       PRES   REMARKS
ALBANY         MOCLDY    75  61  61 CALM      29.94R                  
NEW YORK CITY  MOCLDY    81  68  64 S10G22    29.96R                  
$$
 
ANZALL-020200-
MARINE OBSERVATIONS
  
STATION/POSITION TIME  TEMP    WIND        PRES    VSBY  WAVE
                       AIR SEA DIR/SP/G                  HT/PER
                 (UTC) (F)     (DEG/KT/KT) (MB)    (MI)  (FT/S)
BOSTON BUOY      0050   72 72  130/  8/  8 1013.3R         2/ 8
BUZZARDS BAY     0000          150/ 11/ 12 1015.7R
NANTUCKET SOUND  0040      76  190/  8/  8 1014.6R
MASS BAY-STELLWA 0004   74     180/  8/ 12 1012.0R  1 7/8  1/ 2
ISLE OF SHOALS   0000   73     180/ 12/ 13 1013.4R
S OF BLOCK IS    0026      73                N/A           3/11
$$

......................KEY.........................
  SKY/WX - SKY CONDITION/PRESENT WEATHER
  TMP    - TEMPERATURE IN FAHRENHEIT
  DWPT   - DEWPOINT IN FAHRENHEIT
  RH     - RELATIVE HUMIDITY IN PERCENT
  WIND   - DIRECTION AND SPEED IN MPH
  PRES   - MEAN SEA LEVEL PRESSURE IN INCHES OF HG
  WCI    - WIND CHILL INDEX
  VSB    - VISIBILITY IN MILES
  HX     - HEAT INDEX
  TC     - TEMPERATURE IN CELSIUS
  VRB    - VARIABLE WIND DIRECTION
  N/A    - NOT AVAILABLE
  
      

Other recent Regional Weather Roundups

Mon Aug 3, 8:04am

Mon Aug 3, 7:04am

Mon Aug 3, 6:04am

Mon Aug 3, 5:04am

Mon Aug 3, 4:04am

Mon Aug 3, 3:04am

Mon Aug 3, 2:04am

Mon Aug 3, 1:04am

Mon Aug 3, 12:05am

Sun Aug 2, 11:04pm

Sun Aug 2, 10:04pm

Sun Aug 2, 9:04pm

Sun Aug 2, 8:04pm

Sun Aug 2, 7:04pm

Sun Aug 2, 6:04pm

Sun Aug 2, 5:04pm

Sun Aug 2, 4:05pm

Sun Aug 2, 3:04pm

Sun Aug 2, 2:05pm

Sun Aug 2, 1:04pm

Sun Aug 2, 12:04pm

Sun Aug 2, 11:04am

Sun Aug 2, 10:04am

Sun Aug 2, 9:05am

Sun Aug 2, 8:05am

Sun Aug 2, 7:04am

Sun Aug 2, 6:04am

Sun Aug 2, 5:04am

Sun Aug 2, 4:05am

Sun Aug 2, 3:04am

Sun Aug 2, 2:04am

Sun Aug 2, 1:04am

Sun Aug 2, 12:05am

Sat Aug 1, 11:04pm

Sat Aug 1, 10:04pm

Sat Aug 1, 8:05pm

Sat Aug 1, 7:04pm

Sat Aug 1, 6:04pm

Sat Aug 1, 5:05pm

Sat Aug 1, 4:05pm

Sat Aug 1, 3:04pm

Sat Aug 1, 2:04pm

Sat Aug 1, 1:04pm

Sat Aug 1, 12:04pm

Sat Aug 1, 11:05am

Sat Aug 1, 10:05am

Sat Aug 1, 9:04am

Sat Aug 1, 8:04am

Sat Aug 1, 7:04am

Sat Aug 1, 6:04am

Sat Aug 1, 5:04am

Sat Aug 1, 4:05am

Sat Aug 1, 3:04am

Sat Aug 1, 2:04am

Sat Aug 1, 1:04am

Sat Aug 1, 12:05am

Fri Jul 31, 11:05pm

Fri Jul 31, 10:04pm

Fri Jul 31, 9:04pm

Fri Jul 31, 8:05pm

Fri Jul 31, 7:05pm

Fri Jul 31, 6:04pm

Fri Jul 31, 5:04pm

Fri Jul 31, 4:05pm

Fri Jul 31, 3:04pm

Fri Jul 31, 2:05pm

Fri Jul 31, 1:04pm

Fri Jul 31, 12:04pm

Fri Jul 31, 11:04am

Fri Jul 31, 10:04am

Fri Jul 31, 9:04am

Fri Jul 31, 8:04am

Fri Jul 31, 7:04am

Fri Jul 31, 6:04am

Fri Jul 31, 5:04am

Fri Jul 31, 4:04am

Fri Jul 31, 3:04am

Fri Jul 31, 2:04am

Fri Jul 31, 1:05am

Fri Jul 31, 12:04am

Thu Jul 30, 11:04pm

Thu Jul 30, 10:04pm

Thu Jul 30, 9:04pm

Thu Jul 30, 8:04pm

Thu Jul 30, 7:05pm

Thu Jul 30, 6:04pm

Thu Jul 30, 5:04pm

Thu Jul 30, 4:05pm

Thu Jul 30, 3:04pm

Thu Jul 30, 2:05pm

Thu Jul 30, 1:04pm

Thu Jul 30, 12:04pm

Thu Jul 30, 11:04am

Thu Jul 30, 10:05am

Thu Jul 30, 9:04am

Thu Jul 30, 8:04am

Thu Jul 30, 7:04am

Thu Jul 30, 6:04am

Thu Jul 30, 5:04am

Thu Jul 30, 4:04am

Thu Jul 30, 3:04am

Thu Jul 30, 2:04am

Thu Jul 30, 1:04am

Thu Jul 30, 12:04am

Wed Jul 29, 11:04pm

Wed Jul 29, 10:04pm

Wed Jul 29, 9:04pm

Wed Jul 29, 8:04pm

Wed Jul 29, 7:05pm

Wed Jul 29, 6:05pm

Wed Jul 29, 5:04pm

Wed Jul 29, 4:04pm

Wed Jul 29, 3:04pm

Wed Jul 29, 2:04pm

Wed Jul 29, 1:05pm

Wed Jul 29, 12:05pm

Wed Jul 29, 11:04am

Wed Jul 29, 10:04am

Wed Jul 29, 9:04am

Wed Jul 29, 8:04am

Wed Jul 29, 7:04am

Wed Jul 29, 6:04am

Wed Jul 29, 5:04am

Wed Jul 29, 4:04am

Wed Jul 29, 3:04am

Wed Jul 29, 2:04am

Wed Jul 29, 1:04am

Wed Jul 29, 12:05am

Tue Jul 28, 11:05pm

Tue Jul 28, 10:05pm

Tue Jul 28, 9:04pm

Tue Jul 28, 8:04pm

Tue Jul 28, 7:04pm

Tue Jul 28, 6:04pm

Tue Jul 28, 5:04pm

Tue Jul 28, 4:05pm

Tue Jul 28, 3:05pm

Tue Jul 28, 2:04pm

Tue Jul 28, 1:05pm

Tue Jul 28, 12:04pm

Tue Jul 28, 11:04am

Tue Jul 28, 10:04am

Tue Jul 28, 9:04am

Tue Jul 28, 8:04am

Tue Jul 28, 7:04am

Tue Jul 28, 6:04am

Tue Jul 28, 5:04am

Tue Jul 28, 4:04am

Tue Jul 28, 3:04am

Tue Jul 28, 2:04am

Tue Jul 28, 1:04am

Tue Jul 28, 12:05am

Mon Jul 27, 11:04pm

Mon Jul 27, 10:05pm

Mon Jul 27, 9:05pm

Mon Jul 27, 8:04pm

Mon Jul 27, 7:04pm

Mon Jul 27, 6:05pm

Mon Jul 27, 5:05pm

Mon Jul 27, 4:04pm

Mon Jul 27, 3:04pm

Mon Jul 27, 2:04pm

Mon Jul 27, 1:04pm

Mon Jul 27, 12:04pm

Mon Jul 27, 11:04am

Mon Jul 27, 10:04am

Mon Jul 27, 9:04am

Meta data:

ID: 706170f4-062c-41b1-bf3a-85a58f3bbaa1
Link: https://api.weather.gov/products/706170f4-062c-41b1-bf3a-85a58f3bbaa1